Time,TemperatureF,DewpointF,PressureIn,WindDirection,WindDirectionDegrees,WindSpeedMPH,WindSpeedGustMPH,Humidity,HourlyPrecipIn,Conditions,Clouds,dailyrainin,SolarRadiationWatts/m^2,SoftwareType,DateUTC
2013-03-20 00:02:00,47.7,45.0,30.24,West,267,0.0,2.0,90,0.00,,,0.04,0.0,meteohub,2013-03-20 07:02:00,
2013-03-20 00:07:00,47.5,44.8,30.24,West,267,0.0,2.0,90,0.00,,,0.04,0.0,meteohub,2013-03-20 07:07:00,
2013-03-20 00:12:00,47.5,44.8,30.24,West,267,0.0,1.0,90,0.00,,,0.04,0.0,meteohub,2013-03-20 07:12:00,
2013-03-20 00:17:00,47.5,44.8,30.23,West,267,0.0,1.0,90,0.00,,,0.04,0.0,meteohub,2013-03-20 07:17:00,
2013-03-20 00:22:00,47.7,45.0,30.23,West,267,0.0,1.0,90,0.00,,,0.04,0.0,meteohub,2013-03-20 07:22:00,
2013-03-20 00:27:00,47.7,45.0,30.23,West,267,0.0,0.0,90,0.00,,,0.04,0.0,meteohub,2013-03-20 07:27:00,
2013-03-20 00:32:00,47.7,45.1,30.23,West,267,0.0,1.0,91,0.00,,,0.04,0.0,meteohub,2013-03-20 07:32:00,
2013-03-20 00:42:00,47.7,45.1,30.23,West,267,0.0,2.0,91,0.00,,,0.04,0.0,meteohub,2013-03-20 07:42:00,
2013-03-20 00:47:00,47.7,45.1,30.23,West,267,0.0,1.0,91,0.00,,,0.04,0.0,meteohub,2013-03-20 07:47:00,
2013-03-20 00:52:00,47.7,45.1,30.23,West,274,0.0,2.0,91,0.00,,,0.04,0.0,meteohub,2013-03-20 07:52:00,
2013-03-20 00:57:00,47.7,45.1,30.24,West,277,1.0,3.0,91,0.00,,,0.04,0.0,meteohub,2013-03-20 07:57:00,
2013-03-20 01:02:00,47.8,45.3,30.24,West,275,0.0,3.0,91,0.00,,,0.04,0.0,meteohub,2013-03-20 08:02:00,
2013-03-20 01:07:00,48.0,45.5,30.24,West,275,2.0,3.0,91,0.00,,,0.04,0.0,meteohub,2013-03-20 08:07:00,
2013-03-20 01:12:00,48.0,45.5,30.23,West,275,0.0,3.0,91,0.00,,,0.04,0.0,meteohub,2013-03-20 08:12:00,
2013-03-20 01:17:00,48.4,45.9,30.24,WSW,242,2.0,3.0,91,0.00,,,0.04,0.0,meteohub,2013-03-20 08:17:00,
2013-03-20 01:22:00,48.6,46.0,30.24,WSW,242,0.0,4.0,91,0.00,,,0.04,0.0,meteohub,2013-03-20 08:22:00,
2013-03-20 01:27:00,48.6,46.0,30.24,WSW,242,0.0,4.0,91,0.00,,,0.04,0.0,meteohub,2013-03-20 08:27:00,
2013-03-20 01:32:00,48.7,46.2,30.24,WSW,242,0.0,4.0,91,0.00,,,0.04,0.0,meteohub,2013-03-20 08:32:00,
2013-03-20 01:42:00,48.7,46.6,30.24,WSW,242,0.0,0.0,92,0.01,,,0.05,0.0,meteohub,2013-03-20 08:42:00,
2013-03-20 01:52:00,48.9,46.8,30.24,WSW,242,0.0,0.0,92,0.01,,,0.05,0.0,meteohub,2013-03-20 08:52:00,
2013-03-20 02:02:00,48.7,46.6,30.24,WSW,242,0.0,1.0,92,0.01,,,0.05,0.0,meteohub,2013-03-20 09:02:00,
2013-03-20 02:07:00,48.7,46.6,30.24,WSW,242,0.0,1.0,92,0.01,,,0.05,0.0,meteohub,2013-03-20 09:07:00,
2013-03-20 02:12:00,48.7,46.6,30.24,WSW,242,0.0,1.0,92,0.01,,,0.05,0.0,meteohub,2013-03-20 09:12:00,
2013-03-20 02:17:00,48.6,46.4,30.24,WSW,242,0.0,1.0,92,0.01,,,0.05,0.0,meteohub,2013-03-20 09:17:00,
2013-03-20 02:22:00,48.7,46.8,30.24,WSW,242,0.0,1.0,93,0.01,,,0.05,0.0,meteohub,2013-03-20 09:22:00,
2013-03-20 02:27:00,49.1,47.1,30.24,WSW,242,0.0,0.0,93,0.01,,,0.05,0.0,meteohub,2013-03-20 09:27:00,
2013-03-20 02:32:00,49.3,47.1,30.24,WSW,242,0.0,1.0,92,0.00,,,0.05,0.0,meteohub,2013-03-20 09:32:00,
2013-03-20 02:37:00,48.9,46.8,30.24,WSW,242,1.0,1.0,92,0.00,,,0.05,0.0,meteohub,2013-03-20 09:37:00,
2013-03-20 02:42:00,48.7,46.6,30.24,WSW,242,1.0,2.0,92,0.00,,,0.05,0.0,meteohub,2013-03-20 09:42:00,
2013-03-20 02:47:00,48.6,46.4,30.23,East,92,0.0,2.0,92,0.00,,,0.05,0.0,meteohub,2013-03-20 09:47:00,
2013-03-20 02:52:00,48.4,46.2,30.24,East,92,0.0,2.0,92,0.00,,,0.05,0.0,meteohub,2013-03-20 09:52:00,
2013-03-20 02:57:00,48.4,46.2,30.24,East,92,0.0,2.0,92,0.00,,,0.05,0.0,meteohub,2013-03-20 09:57:00,
2013-03-20 03:02:00,48.4,46.2,30.24,East,92,0.0,2.0,92,0.00,,,0.05,0.0,meteohub,2013-03-20 10:02:00,
2013-03-20 03:12:00,48.6,46.4,30.23,East,92,0.0,1.0,92,0.00,,,0.05,0.0,meteohub,2013-03-20 10:12:00,
2013-03-20 03:17:00,48.4,46.2,30.23,East,92,0.0,1.0,92,0.00,,,0.05,0.0,meteohub,2013-03-20 10:17:00,
2013-03-20 03:22:00,48.4,46.2,30.23,East,92,0.0,0.0,92,0.00,,,0.05,0.0,meteohub,2013-03-20 10:22:00,
2013-03-20 03:27:00,48.4,46.2,30.23,East,92,0.0,0.0,92,0.00,,,0.05,0.0,meteohub,2013-03-20 10:27:00,
2013-03-20 03:32:00,48.4,46.4,30.23,East,92,0.0,0.0,93,0.00,,,0.05,0.0,meteohub,2013-03-20 10:32:00,
2013-03-20 03:42:00,48.6,46.6,30.22,East,92,0.0,1.0,93,0.00,,,0.05,0.0,meteohub,2013-03-20 10:42:00,
2013-03-20 03:47:00,48.6,46.6,30.22,East,92,0.0,1.0,93,0.00,,,0.05,0.0,meteohub,2013-03-20 10:47:00,
2013-03-20 03:52:00,48.6,46.6,30.22,East,92,0.0,1.0,93,0.00,,,0.05,0.0,meteohub,2013-03-20 10:52:00,
2013-03-20 04:02:00,48.6,46.6,30.23,East,92,0.0,1.0,93,0.00,,,0.05,0.0,meteohub,2013-03-20 11:02:00,
2013-03-20 04:07:00,48.6,46.6,30.23,East,92,0.0,1.0,93,0.00,,,0.05,0.0,meteohub,2013-03-20 11:07:00,
2013-03-20 04:12:00,48.7,46.8,30.23,East,92,0.0,1.0,93,0.00,,,0.05,0.0,meteohub,2013-03-20 11:12:00,
2013-03-20 04:17:00,48.7,46.8,30.23,East,92,0.0,1.0,93,0.00,,,0.05,0.0,meteohub,2013-03-20 11:17:00,
2013-03-20 04:22:00,48.9,46.9,30.23,East,92,0.0,1.0,93,0.00,,,0.05,0.0,meteohub,2013-03-20 11:22:00,
2013-03-20 04:27:00,48.9,46.9,30.22,East,92,0.0,1.0,93,0.01,,,0.06,0.0,meteohub,2013-03-20 11:27:00,
2013-03-20 04:37:00,49.3,47.3,30.22,East,92,0.0,1.0,93,0.01,,,0.06,0.0,meteohub,2013-03-20 11:37:00,
2013-03-20 04:42:00,49.5,47.5,30.22,East,92,0.0,1.0,93,0.01,,,0.06,0.0,meteohub,2013-03-20 11:42:00,
2013-03-20 04:52:00,49.6,47.7,30.22,East,92,0.0,0.0,93,0.01,,,0.06,0.0,meteohub,2013-03-20 11:52:00,
2013-03-20 04:57:00,49.6,48.0,30.22,East,92,0.0,0.0,94,0.01,,,0.06,0.0,meteohub,2013-03-20 11:57:00,
2013-03-20 05:07:00,49.8,48.2,30.22,East,92,0.0,0.0,94,0.01,,,0.06,0.0,meteohub,2013-03-20 12:07:00,
2013-03-20 05:12:00,49.6,47.7,30.22,East,92,0.0,0.0,93,0.01,,,0.06,0.0,meteohub,2013-03-20 12:12:00,
2013-03-20 05:17:00,49.8,48.2,30.22,East,92,0.0,0.0,94,0.01,,,0.06,0.0,meteohub,2013-03-20 12:17:00,
2013-03-20 05:27:00,49.8,48.2,30.22,East,92,0.0,0.0,94,0.00,,,0.06,0.0,meteohub,2013-03-20 12:27:00,
2013-03-20 05:32:00,49.8,48.2,30.22,East,92,0.0,0.0,94,0.00,,,0.06,0.0,meteohub,2013-03-20 12:32:00,
2013-03-20 05:42:00,49.8,47.8,30.22,East,92,0.0,0.0,93,0.00,,,0.06,0.0,meteohub,2013-03-20 12:42:00,
2013-03-20 05:47:00,49.8,47.8,30.22,East,92,0.0,0.0,93,0.00,,,0.06,0.0,meteohub,2013-03-20 12:47:00,
2013-03-20 05:52:00,49.8,47.8,30.21,East,92,0.0,0.0,93,0.00,,,0.06,0.0,meteohub,2013-03-20 12:52:00,
2013-03-20 05:57:00,49.8,48.2,30.21,East,92,0.0,0.0,94,0.00,,,0.06,0.0,meteohub,2013-03-20 12:57:00,
2013-03-20 06:07:00,49.8,48.2,30.21,East,92,0.0,0.0,94,0.00,,,0.06,0.0,meteohub,2013-03-20 13:07:00,
2013-03-20 06:12:00,49.8,47.8,30.21,East,92,0.0,0.0,93,0.00,,,0.06,0.0,meteohub,2013-03-20 13:12:00,
2013-03-20 06:17:00,49.5,47.5,30.21,East,92,0.0,0.0,93,0.00,,,0.06,0.0,meteohub,2013-03-20 13:17:00,
2013-03-20 06:22:00,49.3,47.3,30.22,East,92,0.0,0.0,93,0.00,,,0.06,0.0,meteohub,2013-03-20 13:22:00,
2013-03-20 06:27:00,49.3,47.3,30.21,East,92,0.0,0.0,93,0.00,,,0.06,0.0,meteohub,2013-03-20 13:27:00,
2013-03-20 06:32:00,49.3,47.3,30.22,East,92,0.0,0.0,93,0.00,,,0.06,0.0,meteohub,2013-03-20 13:32:00,
2013-03-20 06:37:00,49.1,47.1,30.22,East,92,0.0,0.0,93,0.00,,,0.06,0.0,meteohub,2013-03-20 13:37:00,
2013-03-20 06:47:00,49.1,47.5,30.21,East,92,0.0,0.0,94,0.00,,,0.06,0.0,meteohub,2013-03-20 13:47:00,
2013-03-20 06:52:00,49.1,47.5,30.21,East,92,0.0,0.0,94,0.00,,,0.06,0.0,meteohub,2013-03-20 13:52:00,
2013-03-20 07:02:00,49.6,48.0,30.22,East,92,0.0,0.0,94,0.00,,,0.06,0.0,meteohub,2013-03-20 14:02:00,
2013-03-20 07:07:00,49.8,48.2,30.22,East,92,0.0,0.0,94,0.00,,,0.06,0.0,meteohub,2013-03-20 14:07:00,
2013-03-20 07:12:00,50.2,48.6,30.22,East,92,0.0,0.0,94,0.00,,,0.06,0.0,meteohub,2013-03-20 14:12:00,
2013-03-20 07:22:00,50.5,48.9,30.22,East,92,0.0,1.0,94,0.00,,,0.06,0.0,meteohub,2013-03-20 14:22:00,
2013-03-20 07:27:00,50.7,49.1,30.21,WNW,301,2.0,2.0,94,0.00,,,0.06,7.0,meteohub,2013-03-20 14:27:00,
2013-03-20 07:37:00,52.0,50.4,30.21,West,271,2.0,4.0,94,0.00,,,0.06,16.0,meteohub,2013-03-20 14:37:00,
2013-03-20 07:42:00,52.2,50.2,30.21,SW,220,0.0,4.0,93,0.00,,,0.06,19.0,meteohub,2013-03-20 14:42:00,
2013-03-20 07:47:00,52.3,50.0,30.21,West,267,2.0,4.0,92,0.00,,,0.06,21.0,meteohub,2013-03-20 14:47:00,
2013-03-20 07:52:00,52.9,50.5,30.21,WSW,250,0.0,5.0,92,0.00,,,0.06,28.0,meteohub,2013-03-20 14:52:00,
2013-03-20 07:57:00,52.9,50.4,30.22,West,259,1.0,5.0,91,0.00,,,0.06,32.0,meteohub,2013-03-20 14:57:00,
2013-03-20 08:02:00,52.9,50.4,30.22,West,275,3.0,5.0,91,0.00,,,0.06,25.0,meteohub,2013-03-20 15:02:00,
2013-03-20 08:12:00,53.2,50.7,30.22,West,263,2.0,5.0,91,0.00,,,0.06,33.0,meteohub,2013-03-20 15:12:00,
2013-03-20 08:17:00,53.4,50.2,30.22,WNW,293,0.0,7.0,89,0.00,,,0.06,23.0,meteohub,2013-03-20 15:17:00,
2013-03-20 08:22:00,53.6,50.2,30.22,West,280,1.0,8.0,88,0.00,,,0.06,37.0,meteohub,2013-03-20 15:22:00,
2013-03-20 08:27:00,53.8,50.4,30.22,West,275,0.0,8.0,88,0.00,,,0.06,28.0,meteohub,2013-03-20 15:27:00,
2013-03-20 08:32:00,53.8,50.4,30.23,West,260,0.0,4.0,88,0.00,,,0.06,23.0,meteohub,2013-03-20 15:32:00,
2013-03-20 08:37:00,53.8,50.0,30.22,WSW,246,2.0,4.0,87,0.00,,,0.06,30.0,meteohub,2013-03-20 15:37:00,
2013-03-20 08:42:00,53.8,50.4,30.23,West,275,1.0,4.0,88,0.00,,,0.06,60.0,meteohub,2013-03-20 15:42:00,
2013-03-20 08:47:00,54.0,50.2,30.23,West,281,1.0,5.0,87,0.00,,,0.06,63.0,meteohub,2013-03-20 15:47:00,
2013-03-20 08:52:00,54.1,50.0,30.23,WSW,256,8.0,8.0,86,0.00,,,0.06,70.0,meteohub,2013-03-20 15:52:00,
2013-03-20 08:57:00,54.3,49.6,30.23,WNW,303,2.0,8.0,84,0.00,,,0.06,81.0,meteohub,2013-03-20 15:57:00,
2013-03-20 09:02:00,54.5,49.1,30.23,WNW,298,3.0,8.0,82,0.00,,,0.06,74.0,meteohub,2013-03-20 16:02:00,
2013-03-20 09:12:00,54.7,48.6,30.22,WNW,292,4.0,7.0,80,0.00,,,0.06,116.0,meteohub,2013-03-20 16:12:00,
2013-03-20 09:17:00,54.9,48.7,30.22,WNW,299,2.0,6.0,80,0.00,,,0.06,120.0,meteohub,2013-03-20 16:17:00,
2013-03-20 09:22:00,55.0,49.3,30.22,WSW,254,4.0,6.0,81,0.00,,,0.06,121.0,meteohub,2013-03-20 16:22:00,
2013-03-20 09:32:00,55.6,48.2,30.22,West,267,7.0,7.0,76,0.00,,,0.06,105.0,meteohub,2013-03-20 16:32:00,
2013-03-20 09:37:00,55.8,47.7,30.22,WNW,294,4.0,7.0,74,0.00,,,0.06,105.0,meteohub,2013-03-20 16:37:00,
2013-03-20 09:42:00,55.9,47.5,30.22,West,269,10.0,10.0,73,0.00,,,0.06,109.0,meteohub,2013-03-20 16:42:00,
2013-03-20 09:52:00,56.5,47.5,30.22,WNW,288,4.0,13.0,72,0.00,,,0.06,135.0,meteohub,2013-03-20 16:52:00,
2013-03-20 09:57:00,56.7,46.9,30.22,West,274,0.0,13.0,70,0.00,,,0.06,148.0,meteohub,2013-03-20 16:57:00,
2013-03-20 10:02:00,56.8,47.1,30.22,NNW,342,0.0,8.0,70,0.00,,,0.06,160.0,meteohub,2013-03-20 17:02:00,
2013-03-20 10:07:00,57.2,47.1,30.22,WNW,292,6.0,10.0,69,0.00,,,0.06,165.0,meteohub,2013-03-20 17:07:00,
2013-03-20 10:12:00,57.2,48.2,30.22,West,270,1.0,10.0,72,0.00,,,0.06,176.0,meteohub,2013-03-20 17:12:00,
2013-03-20 10:17:00,57.4,49.1,30.22,WNW,292,3.0,10.0,74,0.00,,,0.06,155.0,meteohub,2013-03-20 17:17:00,
2013-03-20 10:27:00,57.6,49.6,30.22,WNW,289,3.0,11.0,75,0.00,,,0.06,162.0,meteohub,2013-03-20 17:27:00,
2013-03-20 10:37:00,58.3,50.0,30.22,WNW,290,5.0,11.0,74,0.00,,,0.06,160.0,meteohub,2013-03-20 17:37:00,
2013-03-20 10:42:00,58.3,48.9,30.22,WNW,291,2.0,8.0,71,0.00,,,0.06,155.0,meteohub,2013-03-20 17:42:00,
2013-03-20 10:47:00,58.8,50.2,30.22,WNW,284,1.0,9.0,73,0.00,,,0.06,190.0,meteohub,2013-03-20 17:47:00,
2013-03-20 10:52:00,59.0,50.7,30.22,WNW,292,4.0,9.0,74,0.00,,,0.06,202.0,meteohub,2013-03-20 17:52:00,
2013-03-20 10:57:00,59.5,51.3,30.22,NW,304,4.0,9.0,74,0.00,,,0.06,200.0,meteohub,2013-03-20 17:57:00,
2013-03-20 11:02:00,59.5,50.5,30.22,WNW,297,5.0,9.0,72,0.00,,,0.06,232.0,meteohub,2013-03-20 18:02:00,
2013-03-20 11:12:00,59.4,50.4,30.22,SW,236,1.0,11.0,72,0.00,,,0.06,244.0,meteohub,2013-03-20 18:12:00,
2013-03-20 11:17:00,59.7,51.1,30.22,NW,314,4.0,11.0,73,0.00,,,0.06,287.0,meteohub,2013-03-20 18:17:00,
2013-03-20 11:22:00,60.1,50.7,30.22,WNW,296,2.0,10.0,71,0.00,,,0.06,255.0,meteohub,2013-03-20 18:22:00,
2013-03-20 11:27:00,59.7,50.4,30.22,West,261,5.0,10.0,71,0.00,,,0.06,253.0,meteohub,2013-03-20 18:27:00,
2013-03-20 11:32:00,60.3,50.9,30.22,WNW,293,7.0,10.0,71,0.00,,,0.06,287.0,meteohub,2013-03-20 18:32:00,
2013-03-20 11:42:00,60.1,50.7,30.22,West,263,7.0,13.0,71,0.00,,,0.06,322.0,meteohub,2013-03-20 18:42:00,
2013-03-20 11:52:00,60.6,51.1,30.23,West,277,9.0,13.0,71,0.00,,,0.06,341.0,meteohub,2013-03-20 18:52:00,
2013-03-20 11:57:00,60.3,51.3,30.23,West,275,9.0,13.0,72,0.00,,,0.06,543.0,meteohub,2013-03-20 18:57:00,
2013-03-20 12:02:00,60.1,51.8,30.23,WNW,293,6.0,13.0,74,0.00,,,0.06,339.0,meteohub,2013-03-20 19:02:00,
2013-03-20 12:07:00,59.7,50.7,30.23,WSW,254,11.0,13.0,72,0.00,,,0.06,237.0,meteohub,2013-03-20 19:07:00,
2013-03-20 12:12:00,59.2,51.3,30.23,WSW,252,3.0,14.0,75,0.00,,,0.06,197.0,meteohub,2013-03-20 19:12:00,
2013-03-20 12:22:00,58.6,52.2,30.23,WSW,250,7.0,14.0,79,0.00,,,0.06,512.0,meteohub,2013-03-20 19:22:00,
2013-03-20 12:27:00,58.8,51.6,30.23,West,274,6.0,14.0,77,0.00,,,0.06,464.0,meteohub,2013-03-20 19:27:00,
2013-03-20 12:32:00,60.3,52.7,30.24,West,261,9.0,14.0,76,0.00,,,0.06,728.0,meteohub,2013-03-20 19:32:00,
2013-03-20 12:42:00,59.5,53.1,30.24,West,265,4.0,16.0,79,0.00,,,0.06,457.0,meteohub,2013-03-20 19:42:00,
2013-03-20 12:47:00,59.5,53.1,30.24,West,267,8.0,16.0,79,0.00,,,0.06,566.0,meteohub,2013-03-20 19:47:00,
2013-03-20 12:52:00,58.6,52.2,30.24,WSW,254,8.0,16.0,79,0.00,,,0.06,265.0,meteohub,2013-03-20 19:52:00,
2013-03-20 12:57:00,57.2,51.8,30.24,West,281,8.0,17.0,82,0.00,,,0.06,272.0,meteohub,2013-03-20 19:57:00,
2013-03-20 13:02:00,57.0,52.2,30.24,WSW,257,8.0,17.0,84,0.00,,,0.06,279.0,meteohub,2013-03-20 20:02:00,
2013-03-20 13:07:00,57.0,51.6,30.24,WSW,249,9.0,17.0,82,0.00,,,0.06,308.0,meteohub,2013-03-20 20:07:00,
2013-03-20 13:17:00,58.6,52.5,30.24,West,273,10.0,14.0,80,0.00,,,0.06,364.0,meteohub,2013-03-20 20:17:00,
2013-03-20 13:22:00,58.5,52.7,30.24,WNW,288,6.0,13.0,81,0.00,,,0.06,330.0,meteohub,2013-03-20 20:22:00,
2013-03-20 13:27:00,57.9,52.2,30.24,West,270,9.0,13.0,81,0.00,,,0.06,243.0,meteohub,2013-03-20 20:27:00,
2013-03-20 13:32:00,57.7,52.7,30.24,West,275,5.0,13.0,83,0.00,,,0.06,255.0,meteohub,2013-03-20 20:32:00,
2013-03-20 13:37:00,57.4,52.3,30.24,West,276,6.0,14.0,83,0.00,,,0.06,234.0,meteohub,2013-03-20 20:37:00,
2013-03-20 13:42:00,57.4,52.5,30.24,WSW,254,11.0,15.0,84,0.00,,,0.06,327.0,meteohub,2013-03-20 20:42:00,
2013-03-20 13:47:00,57.0,52.2,30.24,West,262,6.0,15.0,84,0.00,,,0.06,211.0,meteohub,2013-03-20 20:47:00,
2013-03-20 13:52:00,56.8,52.3,30.24,West,261,7.0,14.0,85,0.00,,,0.06,207.0,meteohub,2013-03-20 20:52:00,
2013-03-20 14:02:00,56.8,52.0,30.24,West,275,5.0,11.0,84,0.00,,,0.06,216.0,meteohub,2013-03-20 21:02:00,
2013-03-20 14:12:00,57.2,52.3,30.23,NW,307,6.0,11.0,84,0.00,,,0.06,237.0,meteohub,2013-03-20 21:12:00,
2013-03-20 14:17:00,57.6,52.5,30.23,WSW,255,9.0,13.0,83,0.00,,,0.06,211.0,meteohub,2013-03-20 21:17:00,
2013-03-20 14:22:00,57.7,52.3,30.23,WNW,296,8.0,13.0,82,0.00,,,0.06,202.0,meteohub,2013-03-20 21:22:00,
2013-03-20 14:27:00,58.1,52.7,30.23,WNW,293,3.0,13.0,82,0.00,,,0.06,276.0,meteohub,2013-03-20 21:27:00,
2013-03-20 14:32:00,58.5,52.7,30.23,WSW,249,7.0,12.0,81,0.00,,,0.06,213.0,meteohub,2013-03-20 21:32:00,
2013-03-20 14:37:00,58.3,52.9,30.23,WSW,250,6.0,12.0,82,0.00,,,0.06,160.0,meteohub,2013-03-20 21:37:00,
2013-03-20 14:42:00,57.9,52.5,30.23,West,275,6.0,9.0,82,0.00,,,0.06,95.0,meteohub,2013-03-20 21:42:00,
2013-03-20 14:47:00,57.6,52.5,30.23,WNW,294,3.0,10.0,83,0.00,,,0.06,105.0,meteohub,2013-03-20 21:47:00,
2013-03-20 14:52:00,57.2,52.7,30.23,WNW,283,5.0,10.0,85,0.00,,,0.06,160.0,meteohub,2013-03-20 21:52:00,
2013-03-20 15:02:00,57.0,53.2,30.23,WSW,248,7.0,10.0,87,0.00,,,0.06,151.0,meteohub,2013-03-20 22:02:00,
2013-03-20 15:07:00,56.8,53.6,30.24,WNW,302,3.0,10.0,89,0.00,,,0.06,88.0,meteohub,2013-03-20 22:07:00,
2013-03-20 15:17:00,56.5,54.0,30.24,West,260,5.0,8.0,91,0.00,,,0.06,93.0,meteohub,2013-03-20 22:17:00,
2013-03-20 15:22:00,56.1,53.6,30.24,WSW,258,4.0,7.0,91,0.00,,,0.06,95.0,meteohub,2013-03-20 22:22:00,
2013-03-20 15:27:00,55.9,53.4,30.24,West,273,4.0,6.0,91,0.00,,,0.06,120.0,meteohub,2013-03-20 22:27:00,
2013-03-20 15:32:00,55.9,53.4,30.23,West,262,8.0,8.0,91,0.00,,,0.06,107.0,meteohub,2013-03-20 22:32:00,
2013-03-20 15:37:00,55.8,53.2,30.23,WSW,252,5.0,9.0,91,0.00,,,0.06,130.0,meteohub,2013-03-20 22:37:00,
2013-03-20 15:42:00,55.9,53.6,30.23,WNW,295,4.0,9.0,92,0.00,,,0.06,132.0,meteohub,2013-03-20 22:42:00,
2013-03-20 15:52:00,55.9,53.4,30.23,WNW,294,4.0,9.0,91,0.00,,,0.06,229.0,meteohub,2013-03-20 22:52:00,
2013-03-20 15:57:00,56.5,54.0,30.23,West,261,3.0,8.0,91,0.00,,,0.06,229.0,meteohub,2013-03-20 22:57:00,
2013-03-20 16:02:00,56.7,54.3,30.23,SW,234,2.0,8.0,92,0.00,,,0.06,171.0,meteohub,2013-03-20 23:02:00,
2013-03-20 16:07:00,56.7,54.1,30.23,West,274,5.0,8.0,91,0.00,,,0.06,134.0,meteohub,2013-03-20 23:07:00,
2013-03-20 16:17:00,56.1,53.8,30.23,West,259,4.0,8.0,92,0.00,,,0.06,109.0,meteohub,2013-03-20 23:17:00,
2013-03-20 16:22:00,56.5,54.1,30.23,West,272,2.0,9.0,92,0.00,,,0.06,121.0,meteohub,2013-03-20 23:22:00,
2013-03-20 16:27:00,56.5,54.1,30.23,West,272,4.0,9.0,92,0.00,,,0.06,137.0,meteohub,2013-03-20 23:27:00,
2013-03-20 16:37:00,56.5,54.1,30.23,WSW,245,4.0,7.0,92,0.00,,,0.06,127.0,meteohub,2013-03-20 23:37:00,
2013-03-20 16:42:00,56.5,54.5,30.23,West,278,1.0,7.0,93,0.00,,,0.06,172.0,meteohub,2013-03-20 23:42:00,
2013-03-20 16:47:00,56.5,54.1,30.23,WNW,285,4.0,7.0,92,0.00,,,0.06,195.0,meteohub,2013-03-20 23:47:00,
2013-03-20 16:57:00,55.8,53.4,30.23,WNW,282,5.0,8.0,92,0.00,,,0.06,142.0,meteohub,2013-03-20 23:57:00,
2013-03-20 17:07:00,55.6,53.2,30.23,West,269,3.0,9.0,92,0.00,,,0.00,109.0,meteohub,2013-03-21 00:07:00,
2013-03-20 17:12:00,55.8,53.8,30.23,WSW,257,3.0,9.0,93,0.00,,,0.00,104.0,meteohub,2013-03-21 00:12:00,
2013-03-20 17:17:00,55.8,53.8,30.22,West,273,4.0,9.0,93,0.00,,,0.00,79.0,meteohub,2013-03-21 00:17:00,
2013-03-20 17:27:00,55.6,53.2,30.22,West,259,2.0,8.0,92,0.00,,,0.00,77.0,meteohub,2013-03-21 00:27:00,
2013-03-20 17:37:00,55.6,53.2,30.22,NW,311,2.0,8.0,92,0.00,,,0.00,40.0,meteohub,2013-03-21 00:37:00,
2013-03-20 17:42:00,55.6,53.2,30.22,West,280,4.0,6.0,92,0.00,,,0.00,47.0,meteohub,2013-03-21 00:42:00,
2013-03-20 17:47:00,55.2,52.9,30.22,West,269,5.0,7.0,92,0.00,,,0.00,25.0,meteohub,2013-03-21 00:47:00,
2013-03-20 17:52:00,55.0,52.7,30.22,WSW,258,3.0,9.0,92,0.00,,,0.00,46.0,meteohub,2013-03-21 00:52:00,
2013-03-20 17:57:00,55.0,52.7,30.22,West,261,7.0,9.0,92,0.00,,,0.00,35.0,meteohub,2013-03-21 00:57:00,
2013-03-20 18:02:00,54.9,52.5,30.22,West,266,4.0,9.0,92,0.00,,,0.00,25.0,meteohub,2013-03-21 01:02:00,
2013-03-20 18:07:00,54.7,52.3,30.23,SW,227,3.0,9.0,92,0.00,,,0.00,35.0,meteohub,2013-03-21 01:07:00,
2013-03-20 18:12:00,54.5,52.2,30.23,West,273,4.0,8.0,92,0.00,,,0.00,44.0,meteohub,2013-03-21 01:12:00,
2013-03-20 18:17:00,54.7,52.7,30.23,West,279,4.0,7.0,93,0.00,,,0.00,49.0,meteohub,2013-03-21 01:17:00,
2013-03-20 18:22:00,54.7,52.7,30.23,West,265,3.0,7.0,93,0.00,,,0.00,30.0,meteohub,2013-03-21 01:22:00,
2013-03-20 18:27:00,54.7,52.3,30.23,WNW,288,4.0,7.0,92,0.00,,,0.00,11.0,meteohub,2013-03-21 01:27:00,
2013-03-20 18:32:00,54.5,52.2,30.23,WSW,251,4.0,8.0,92,0.00,,,0.00,9.0,meteohub,2013-03-21 01:32:00,
2013-03-20 18:42:00,54.1,51.8,30.23,WSW,240,7.0,10.0,92,0.00,,,0.00,9.0,meteohub,2013-03-21 01:42:00,
2013-03-20 18:47:00,54.1,51.8,30.23,WSW,250,8.0,12.0,92,0.00,,,0.00,7.0,meteohub,2013-03-21 01:47:00,
2013-03-20 18:52:00,54.1,51.8,30.23,West,260,8.0,12.0,92,0.00,,,0.00,7.0,meteohub,2013-03-21 01:52:00,
2013-03-20 18:57:00,54.0,51.6,30.24,WSW,257,2.0,12.0,92,0.00,,,0.00,9.0,meteohub,2013-03-21 01:57:00,
2013-03-20 19:02:00,54.0,51.6,30.24,West,263,6.0,11.0,92,0.00,,,0.00,7.0,meteohub,2013-03-21 02:02:00,
2013-03-20 19:07:00,54.0,51.6,30.24,WSW,257,3.0,11.0,92,0.00,,,0.00,0.0,meteohub,2013-03-21 02:07:00,
2013-03-20 19:12:00,53.8,51.4,30.24,WSW,250,5.0,12.0,92,0.00,,,0.00,0.0,meteohub,2013-03-21 02:12:00,
2013-03-20 19:22:00,53.6,51.1,30.25,West,262,1.0,12.0,91,0.00,,,0.00,0.0,meteohub,2013-03-21 02:22:00,
2013-03-20 19:27:00,53.6,51.1,30.25,West,263,2.0,12.0,91,0.00,,,0.00,0.0,meteohub,2013-03-21 02:27:00,
2013-03-20 19:37:00,53.6,51.1,30.25,SW,218,3.0,8.0,91,0.00,,,0.00,0.0,meteohub,2013-03-21 02:37:00,
2013-03-20 19:42:00,53.6,51.1,30.25,WSW,244,1.0,6.0,91,0.00,,,0.00,0.0,meteohub,2013-03-21 02:42:00,
2013-03-20 19:47:00,53.6,50.7,30.25,West,259,2.0,6.0,90,0.00,,,0.00,0.0,meteohub,2013-03-21 02:47:00,
2013-03-20 19:52:00,53.6,50.7,30.25,WSW,243,1.0,5.0,90,0.00,,,0.00,0.0,meteohub,2013-03-21 02:52:00,
2013-03-20 19:57:00,53.4,50.5,30.25,WSW,250,2.0,5.0,90,0.00,,,0.00,0.0,meteohub,2013-03-21 02:57:00,
2013-03-20 20:02:00,53.4,50.5,30.25,West,269,2.0,6.0,90,0.00,,,0.00,0.0,meteohub,2013-03-21 03:02:00,
2013-03-20 20:07:00,53.4,50.5,30.25,West,259,4.0,6.0,90,0.00,,,0.00,0.0,meteohub,2013-03-21 03:07:00,
2013-03-20 20:17:00,53.1,50.5,30.24,West,269,5.0,8.0,91,0.00,,,0.00,0.0,meteohub,2013-03-21 03:17:00,
2013-03-20 20:27:00,52.9,50.4,30.25,WSW,254,5.0,7.0,91,0.00,,,0.00,0.0,meteohub,2013-03-21 03:27:00,
2013-03-20 20:32:00,52.7,50.2,30.25,West,264,3.0,8.0,91,0.00,,,0.00,0.0,meteohub,2013-03-21 03:32:00,
2013-03-20 20:42:00,52.3,49.8,30.25,West,281,5.0,8.0,91,0.00,,,0.00,0.0,meteohub,2013-03-21 03:42:00,
2013-03-20 20:47:00,52.2,49.6,30.25,West,263,5.0,8.0,91,0.00,,,0.00,0.0,meteohub,2013-03-21 03:47:00,
2013-03-20 20:57:00,52.0,49.5,30.25,WSW,254,4.0,9.0,91,0.00,,,0.00,0.0,meteohub,2013-03-21 03:57:00,
2013-03-20 21:02:00,52.0,49.5,30.26,West,260,0.0,8.0,91,0.00,,,0.00,0.0,meteohub,2013-03-21 04:02:00,
2013-03-20 21:07:00,51.8,49.3,30.26,West,264,3.0,8.0,91,0.00,,,0.00,0.0,meteohub,2013-03-21 04:07:00,
2013-03-20 21:12:00,51.6,49.1,30.26,WSW,238,5.0,7.0,91,0.00,,,0.00,0.0,meteohub,2013-03-21 04:12:00,
2013-03-20 21:17:00,52.0,49.5,30.26,SW,232,4.0,10.0,91,0.00,,,0.00,0.0,meteohub,2013-03-21 04:17:00,
2013-03-20 21:27:00,52.0,49.1,30.26,West,269,2.0,10.0,90,0.00,,,0.00,0.0,meteohub,2013-03-21 04:27:00,
2013-03-20 21:32:00,51.8,48.9,30.26,WNW,288,1.0,9.0,90,0.00,,,0.00,0.0,meteohub,2013-03-21 04:32:00,
2013-03-20 21:37:00,51.6,48.7,30.27,West,279,4.0,8.0,90,0.00,,,0.00,0.0,meteohub,2013-03-21 04:37:00,
2013-03-20 21:42:00,51.4,48.6,30.27,West,278,1.0,8.0,90,0.00,,,0.00,0.0,meteohub,2013-03-21 04:42:00,
2013-03-20 21:47:00,51.1,48.6,30.26,SW,234,2.0,5.0,91,0.00,,,0.00,0.0,meteohub,2013-03-21 04:47:00,
2013-03-20 21:52:00,51.3,48.7,30.26,West,273,5.0,7.0,91,0.00,,,0.00,0.0,meteohub,2013-03-21 04:52:00,
2013-03-20 21:57:00,51.3,48.7,30.26,SW,233,3.0,8.0,91,0.00,,,0.00,0.0,meteohub,2013-03-21 04:57:00,
2013-03-20 22:02:00,51.3,48.7,30.26,West,272,2.0,8.0,91,0.00,,,0.00,0.0,meteohub,2013-03-21 05:02:00,
2013-03-20 22:12:00,51.1,48.6,30.26,WSW,252,2.0,7.0,91,0.00,,,0.00,0.0,meteohub,2013-03-21 05:12:00,
2013-03-20 22:17:00,50.7,48.2,30.26,West,259,2.0,7.0,91,0.00,,,0.00,0.0,meteohub,2013-03-21 05:17:00,
2013-03-20 22:22:00,50.7,48.6,30.27,WSW,246,5.0,7.0,92,0.00,,,0.00,0.0,meteohub,2013-03-21 05:22:00,
2013-03-20 22:27:00,50.9,48.7,30.27,WSW,255,1.0,8.0,92,0.00,,,0.00,0.0,meteohub,2013-03-21 05:27:00,
2013-03-20 22:37:00,50.9,48.7,30.27,SW,232,0.0,8.0,92,0.00,,,0.00,0.0,meteohub,2013-03-21 05:37:00,
2013-03-20 22:42:00,50.9,48.7,30.27,SW,232,0.0,4.0,92,0.00,,,0.00,0.0,meteohub,2013-03-21 05:42:00,
2013-03-20 22:47:00,51.3,49.1,30.27,West,259,0.0,3.0,92,0.00,,,0.00,0.0,meteohub,2013-03-21 05:47:00,
2013-03-20 22:52:00,51.4,49.3,30.27,WSW,249,1.0,4.0,92,0.00,,,0.00,0.0,meteohub,2013-03-21 05:52:00,
2013-03-20 22:57:00,51.6,49.5,30.27,WSW,241,1.0,4.0,92,0.00,,,0.00,0.0,meteohub,2013-03-21 05:57:00,
2013-03-20 23:02:00,51.6,49.5,30.27,WSW,249,2.0,6.0,92,0.00,,,0.00,0.0,meteohub,2013-03-21 06:02:00,
2013-03-20 23:07:00,51.6,49.5,30.27,WSW,248,2.0,6.0,92,0.00,,,0.00,0.0,meteohub,2013-03-21 06:07:00,
2013-03-20 23:12:00,51.8,49.6,30.27,WSW,237,2.0,4.0,92,0.00,,,0.00,0.0,meteohub,2013-03-21 06:12:00,
2013-03-20 23:22:00,52.0,49.5,30.27,West,262,1.0,3.0,91,0.00,,,0.00,0.0,meteohub,2013-03-21 06:22:00,
2013-03-20 23:27:00,52.0,49.5,30.27,West,275,1.0,4.0,91,0.00,,,0.00,0.0,meteohub,2013-03-21 06:27:00,
2013-03-20 23:37:00,52.0,49.5,30.27,West,267,1.0,5.0,91,0.00,,,0.00,0.0,meteohub,2013-03-21 06:37:00,
2013-03-20 23:47:00,52.0,49.5,30.27,WSW,257,0.0,4.0,91,0.00,,,0.00,0.0,meteohub,2013-03-21 06:47:00,
2013-03-20 23:52:00,52.2,49.3,30.27,WSW,257,0.0,4.0,90,0.00,,,0.00,0.0,meteohub,2013-03-21 06:52:00,